Simultaneous Nadir Overpasses (SNOs) Predictions

Prediction of SNOs between GOES-16 and TERRA Satellite Orbit:

Table of predicted SNOs for the next 14.0 days since TLE Epoch: 8/3/2019
Index Date Time (GOES-16) GOES-16 Lat,Lon TERRA Lat,Lon Distance(km) Time Diff (sec)
1 08/03/2019 15:32:41 0.00, -75.23 0.04, -75.26 5.43 80
2 08/05/2019 15:17:50 0.00, -75.25 -0.62, -72.31 334.21 80
3 08/06/2019 03:41:54 -0.01, -75.26 -0.48, -77.51 255.12 80
4 08/08/2019 03:27:02 -0.00, -75.29 0.13, -74.54 84.42 80
5 08/10/2019 03:14:51 -0.00, -75.33 0.79, -71.60 424.33 80
6 08/10/2019 15:38:46 0.01, -75.34 0.34, -76.75 160.99 80
7 08/12/2019 15:23:55 0.01, -75.38 -0.33, -73.80 179.64 80
8 08/13/2019 03:47:59 -0.02, -75.39 -0.77, -78.99 409.13 80
9 08/15/2019 03:35:47 -0.01, -75.44 -0.15, -76.03 67.70 80




NCC Satellite Simultaneous Nadir Overpasses (SNOs) Prediction Service
